Regional Weather Roundup
Issued by NWS Wakefield, VA

Home | Current Version | Previous Version | Graphics & Text | Print | Product List | Glossary On
Versions: 1 2 3 4 5 6 7 8 9 10 11 12 13 14 15 16 17 18 19 20 21 22 23 24 25 26 27
000
ASUS41 KAKQ 191415
RWRAKQ

REGIONAL WEATHER ROUNDUP
NATIONAL WEATHER SERVICE WAKEFIELD VA
1000 AM EDT THU OCT 19 2017

Note: "fair" indicates few or no clouds below 12,000 feet with no
significant weather and/or obstructions to visibility. * = Denotes
station may not report precipitation (e.g., rain,snow,etc.),
thunder or fog.

VAZ042-051-052>054-056-191500-
NORTHERN VIRGINIA

CITY           SKY/WX    TMP DP  RH WIND       PRES   REMARKS
WASH NATIONAL  MOSUNNY   58  51  78 S7        30.29S
DULLES         MOSUNNY   52  45  77 SW5       30.28S
FORT BELVOIR   SUNNY     56  51  83 CALM      30.29S
QUANTICO       MOSUNNY   58  47  66 S9        30.30S
FREDERICKSBRG* SUNNY     57  46  68 CALM      30.29S
STAFFORD*      SUNNY     53  49  84 S3        30.33S
WARRENTON      SUNNY     54  43  66 S3        30.28S
CULPEPER*      SUNNY     51  43  73 CALM      30.29S
MANASSAS*      SUNNY     51  45  79 S6        30.29S
LEESBURG*      SUNNY     52  46  82 CALM      30.29S
WINCHESTER     SUNNY     54  43  66 SW5       30.27S
FRONT ROYAL*   SUNNY     55  43  62 S5        30.26S
LURAY*         SUNNY     54  45  71 CALM      30.28S
$$

VAZ048-049-060>072-079>083-191500-
CENTRAL AND SOUTH CENTRAL VIRGINIA

CITY           SKY/WX    TMP DP  RH WIND       PRES   REMARKS
RICHMOND       MOSUNNY   57  53  86 SW8       30.31R
CHESTERFIELD*  NOT AVBL
PETERSBURG*    SUNNY     57  53  87 SW3       30.32R
HANOVER        SUNNY     58  51  78 W6        30.32R
TAPPAHANNOCK*  SUNNY     60  54  82 S3        30.31S
QUINTON*       FAIR      55  53  93 S3        30.31R
CHARLOTTSVILLE SUNNY     55  45  68 SW5       30.28R
GORDONSVILLE*  SUNNY     52  46  80 SW5       30.28S
ORANGE*        SUNNY     52  43  71 S5        30.28S
LOUISA*        SUNNY     54  43  66 SW3       30.29S
BUMPASS*       FAIR      55  46  70 SW8       30.30S
FARMVILLE*     SUNNY     55  46  73 SW5       30.30S
CREWE*         FAIR      57  47  69 W3        30.32R
FORT PICKETT*  FAIR      57  50  77 W5        30.32S
CHASE CITY*    FAIR      56  46  70 W3        30.33R
CLARKSVILLE*   FAIR      54  46  76 W3        30.33R
SOUTH HILL*    SUNNY     57  54  90 SW3       30.38R
LAWRENCEVILLE* FAIR      56  52  86 W3        30.32R
EMPORIA*       SUNNY     54  50  87 CALM      30.33R
$$

VAZ088>098-191500-
SOUTHEAST VIRGINIA

CITY           SKY/WX    TMP DP  RH WIND       PRES   REMARKS
NORFOLK        SUNNY     67  57  70 CALM      30.29F
VIRGINIA BEACH SUNNY     67  57  70 E6        30.28S
NORFOLK NAVAL  MOSUNNY   66  56  70 CALM      30.31S
WEST POINT*    SUNNY    N/A N/A N/A CALM      30.32S
SALUDA*        FAIR      62  55  76 SW3       30.30S
NEWPORT NEWS   SUNNY     64  57  78 CALM      30.30S
LANGLEY AFB    SUNNY     64  59  84 CALM      30.30S
FORT EUSTIS    SUNNY     64  56  74 CALM      30.28R
WILLIAMSBURG*  SUNNY     59  59 100 W3        30.32R
HR EXEC AP*    NOT AVBL
FRANKLIN*      SUNNY     59  53  79 CALM      30.31S
US460-WAKEFLD  SUNNY     60  55  83 CALM      30.31S
$$

VAZ020-022-025-037-045-191500-
WEST CENTRAL AND SOUTHWEST VIRGINIA

CITY           SKY/WX    TMP DP  RH WIND       PRES   REMARKS
STAUNTON*      SUNNY     53  40  62 S3        30.30F
WAYNESBORO*    SUNNY     55  43  65 CALM      30.29F
HOT SPRINGS VA SUNNY     54  32  43 W14       30.34R
LYNCHBURG      SUNNY     52  43  71 SW7       30.31R
DANVILLE       SUNNY     51  47  86 CALM      30.33R
SOUTH BOSTON*  FAIR      52  43  72 CALM      30.33S
MARTINSVILLE   SUNNY     47  43  85 CALM      30.36S
ROANOKE        SUNNY     53  44  71 NW3       30.34S
BLACKSBURG     SUNNY     47  45  92 NW3       30.37S
DUBLIN*        SUNNY     50  45  81 W3        30.36S
MARION*        SUNNY     54  40  58 W6        30.37S
HILLSVILLE*    SUNNY     48  38  67 CALM      30.33F
RICHLANDS*     FAIR      54  40  59 CALM      30.36R
WISE*          SUNNY     55  43  62 W3        30.37S
ABINGDON*      SUNNY     55  44  67 CALM      30.36S
$$

MDZ021>025-VAZ099-100-191500-
SOUTHERN MARYLAND AND THE DELMARVA PENINSULA

CITY           SKY/WX    TMP DP  RH WIND       PRES   REMARKS
PATUXENT RIVER MOSUNNY   61  54  77 SW7       30.30R
BAY BRIDGE APT SUNNY     61  52  72 SW7       30.29S
LEONARDTOWN    NOT AVBL
DOVER          MOSUNNY   61  52  72 S6        30.28S
GEORGETOWN     SUNNY     61  50  67 SW6       30.30S
EASTON         MOSUNNY   63  55  77 SW7       30.33R
CAMBRIDGE      SUNNY     61  55  82 CALM      30.30R
SALISBURY      SUNNY     62  53  72 S6        30.29S
OCEAN CITY     SUNNY     63  55  75 W5        30.30S HAZE
WALLOPS ISLAND MOSUNNY   64  55  72 SW5       30.30S
ACCOMACK*      SUNNY     65  54  67 CALM      30.30S
$$

NCZ012>017-030>032-191500-
NORTH CENTRAL AND EASTERN NORTH CAROLINA

CITY           SKY/WX    TMP DP  RH WIND       PRES   REMARKS
ROANOKE RAPIDS FAIR      55  55 100 CALM      30.31R
RALEIGH        MOSUNNY   58  53  84 CALM      30.33R
ELIZABETH CITY SUNNY     67  60  78 CALM      30.29S
AHOSKIE*       SUNNY     57  55  91 CALM      30.30S
EDENTON*       SUNNY     66  60  80 CALM      30.30S
CURRITUCK*     SUNNY     67  60  79 CALM      30.30S
KILL DEVIL HLS SUNNY     70  58  65 CALM      30.28S
MANTEO         SUNNY    N/A N/A N/A E9        30.29S
CAPE HATTERAS  SUNNY     74  63  68 NE7       30.27R
TARBORO*       NOT AVBL
GOLDSBORO      SUNNY     63  57  80 NE5       30.28S
WASHINGTON     SUNNY     63  58  84 E3        30.29F
GREENVILLE     SUNNY     59  55  88 CALM      30.30S
NEW BERN       SUNNY     69  62  78 NE5       30.29S
WILMINGTON     SUNNY     69  59  70 NE10      30.27R
$$

VAZ048-191500-
ELSEWHERE

CITY           SKY/WX    TMP DP  RH WIND       PRES   REMARKS
HARRISBURG PA  SUNNY     54  48  80 CALM      30.26R
BALTIMORE      MOSUNNY   57  50  77 SW5       30.28S
ANNAPOLIS      SUNNY     61  53  75 SW5       30.29R
ANDREWS AFB    SUNNY     63  46  55 SW5       30.33R
PHILADELPHIA   MOSUNNY   58  50  75 SW8       30.28S
HENDERSON NC   SUNNY     55  49  82 CALM      30.33R
GREENSBORO     MOSUNNY   59  43  55 W5        30.33R
ROCKY MOUNT    SUNNY     62  57  83 CALM      30.31S
$$

VAZ100-191500-
MARINE

STATION/POSITION TIME  TEMP    WIND        PRES    WAVE   SWELL
                       AIR SEA DIR/SP/G            HT/PER HT/PER
                 (UTC) (F)     (DEG/KT/KT) (MB)    (FT/S) (FT/S)
BRANDYWINE LGT   1336   61     230/ 11/ 13 1026.0F
CAPE MAY NJ      1348   62 64  220/  8/ 11 1025.2F
LEWES DE         1348   61 65  210/  3/  4 1025.6F
15NM E FENWICK I 1350   64 67  200/  8/ 10 1026.2S   3/ 9   3/ 9
OCEAN-CITY-INLET 1348   62 66  280/  4/  6 1026.4R
WACHAPREAGUE VA  1348   69 63  210/  2/  3 1025.9F
THOMAS POINT MD  1400   59 67  220/ 10/ 11   N/A
COVE POINT MD    1348   61     250/  7/ 11 1026.6R
SOLOMONS ISLAND  1348   62 69  230/  8/ 10 1025.7R
BISHOPS HEAD MD  1348   63 61  230/  9/ 11 1026.1S
PINEY POINT MD   1336          260/  6/  8   N/A
CAMBRIDGE MD     1336   63 66              1026.6R
LEWISETTA VA     1348   60 64  270/  7/  8 1025.9R
RAPPAHANNOCK LGT 1348          150/  5/  6 1026.4F
YORK RVR RNG VA  1348   65     250/  4/  5 1026.4S
YORKTOWN VA      1348   63 70  260/  2/  3 1025.6S
DOMINION TERM VA 1348   62     250/  2/  3 1026.2R
KIPTOPEKE VA     1348      68   CALM  /  1   N/A
CAPE HENRY VA    1348   67     100/  4/  6   N/A
WILLOUBY STN VA  1348   71        CALM     1026.0R
S CRANEY ISL VA  1348   67      CALM  /  1 1025.7S
CAPE HENRY BUOY  1400      70                N/A     3/ 9   2/11
CAPE CHARLES BUO 1351      70                N/A     3/ 9
64NM E OF VA BCH 1350   68 67   90/  8/  8 1026.1R   3/ 8   3/ 8
DUCK PIER NC     1348   70 69   90/ 12/ 13 1025.1F
44100 DUCK FRF   1305      70                N/A     3/11   2/11
44056 DUCK FRF   1330      69                N/A     3/10
OREGON INLET NC  1336   69 65   40/ 11/ 13 1025.3R
HATTERAS NC      1348   69 68   30/ 10/ 13 1024.8R
DIAMOND SHLS NC  1350   75 81   50/ 10/ 16 1024.0R   5/ 9   3/ 9
CAPE LOOKOUT NC  1400   69      10/ 13/ 16 1024.5R
$$




USA.gov is the U.S. government's official web portal to all federal, state and local government web resources and services.